User: anonymous   Login
Location: Ostrava
(49.8330°N, 18.2830°E)
Time: 07:05:32
(UTC+01:00)
Language:

Iridium 7 - Orbit

View from above orbital plane
View from above orbital plane
View from above satellite
View from above satellite

Ground track
Ground track

The orbit data is extracted from the following two-line orbital elements,

1 24793U 97020B   17080.81032872 +.00000171 +00000-0 +53861-4 0  9996
2 24793 086.4012 355.5021 0002192 083.7903 276.3542 14.34216224040443
Epoch (UTC): 21 March 2017 19:26:52
Eccentricity: 0.0002192
inclination: 86.4012°
perigee height: 776 km
apogee height: 779 km
right ascension of ascending node: 355.5021°
argument of perigee: 83.7903°
revolutions per day: 14.34216224
mean anomaly at epoch: 276.3542°
orbit number at epoch: 4044

The dashed part of the orbit path shows where the satellite is in the earth's shadow,  

DLR